Regional Weather Roundup
Issued by NWS

Home | Current Version | Previous Version | Graphics & Text | Print | Product List | Glossary On
Versions: 1 2 3 4 5 6 7 8 9 10 11 12 13 14 15 16 17 18 19 20 21 22 23 24 25 26 27 28 29 30 31 32 33 34 35 36 37 38 39 40 41 42 43 44 45 46 47 48 49 50
000
ASUS45 KBOU 030707
RWRCO

WEATHER ROUNDUP FOR COLORADO
NATIONAL WEATHER SERVICE DENVER/BOULDER CO
100 AM MDT WED JUN 03 2015

NOTE: "FAIR" INDICATES FEW OR NO CLOUDS BELOW 12000 FEET WITH NO
SIGNIFICANT WEATHER AND/OR OBSTRUCTIONS TO VISIBILITY.

COZ001>005-013-030-031-030800-
...NORTHWEST COLORADO...

CITY           SKY/WX    TMP DP  RH WIND       PRES   REMARKS
CRAIG          CLEAR     46  39  76 SW6       30.04R
HAYDEN         CLEAR     52  32  46 E12       30.05S
MEEKER         CLEAR     48  35  60 E5        30.05S
MOUNT WERNER   NOT AVBL
STEAMBOAT SPGS CLEAR     47  33  57 CALM      30.07S
WALDEN         CLEAR     39  32  75 SE8       30.15S
$$

COZ006>008-011-030800-
...WEST CENTRAL VALLEYS...

CITY           SKY/WX    TMP DP  RH WIND       PRES   REMARKS
GRAND JUNCTION CLEAR     62  25  24 E8        29.91F
MONTROSE       CLEAR     59  29  31 SE10      30.03F
EAGLE          CLEAR     63  37  39 SE3       30.10S
RIFLE          CLEAR     52  39  61 CALM      30.00S
DELTA          CLEAR     61  29  30 N8        29.99S
NUCLA          CLEAR     59  25  27 E9        30.05S
$$

COZ017>023-064>068-030800-
...SOUTHWEST COLORADO...

CITY           SKY/WX    TMP DP  RH WIND       PRES   REMARKS
DURANGO        CLEAR     50  31  48 N6        30.10S
CORTEZ         CLEAR     51  32  48 E6        30.05S
PAGOSA SPRINGS CLEAR     46  29  51 CALM      30.18F
TELLURIDE      CLEAR     51  23  33 SE7       30.28S
WOLF CREEK PAS NOT AVBL
$$

COZ009-010-012-014-032>034-037-058>063-030800-
...CENTRAL COLORADO...

CITY           SKY/WX    TMP DP  RH WIND       PRES   REMARKS
ASPEN          CLEAR     49  26  41 SW12      30.16F
BUENA VISTA    PTCLDY    50  21  32 SW3       30.18R
COPPER MTN     PTCLDY    45  10  24 SW14G21   30.43F
BERTHOUD PASS  FAIR      37  32  81 W23G33    30.45F
COTTONWOOD PAS NOT AVBL
GUNNISON       CLEAR     45  30  57 CALM      30.21S
KREMMLING      CLEAR     46  36  66 CALM      30.14F
LEADVILLE      PTCLDY    34  21  59 E5        30.29S WCI  30
MONARCH PASS   CLEAR     43  14  31 W25       30.53S
SALIDA         PTCLDY    58  21  23 W5        30.21S
SUNLIGHT       CLEAR     46  18  31 CALM      30.37S
WILKERSON PASS PTCLDY    46  14  27 W9G16     30.40S
$$

COZ069>075-030800-
...SAN LUIS VALLEY/SANGRE DE CRISTO MOUNTAINS...

CITY           SKY/WX    TMP DP  RH WIND       PRES   REMARKS
ALAMOSA        PTCLDY    43  32  65 E8        30.15S
LA VETA PASS   CLEAR    N/A N/A N/A MISG      30.28F
SAGUACHE       CLEAR     54  23  30 N5        30.18R
$$

COZ035-036-038>040-030800-
...NORTHERN COLORADO FRONT RANGE...

CITY           SKY/WX    TMP DP  RH WIND       PRES   REMARKS
DENVER INTL AP PTCLDY    62  44  51 W6        29.93R
DMNS CITY PARK   N/A     62  41  45 W2        29.93S
AURORA         PTCLDY    62  44  51 W8        29.96R
FRONT RANGE AP CLEAR     61  46  59 W8        29.95R
ERIE MUNI ARPT CLEAR     55  44  66 CALM      29.93R
BOULDER MUN AP CLEAR     64  34  32 S3        29.93S
CENTENNIAL     PTCLDY    65  39  38 NW3       29.97R
BROOMFIELD     CLEAR     68  32  26 N7        29.97R
FORT COLLINS   CLEAR     61  50  67 N6        29.92S
LONGMONT       CLEAR     57  44  60 CALM      29.94R
$$

COZ041-046-047-076>085-087-088-030800-
...PIKES PEAK/PALMER DIVIDE AND SOUTHERN FOOTHILLS...

CITY           SKY/WX    TMP DP  RH WIND       PRES   REMARKS
COLO. SPRINGS  CLEAR     65  41  41 NW13      29.98S
A. F. ACADEMY  CLEAR     51  36  55 N10       30.01S
ELLICOTT       CLEAR    N/A N/A N/A N7        29.95F
FALCON         CLEAR     61  34  36 NW12      30.03F
FORT CARSON    CLEAR     61  40  47 N5        29.94S
LIMON          CLEAR     53  51  93 CALM      29.91S
MONUMENT HILL  CLEAR     54  34  47 SE9       30.05F
TRINIDAD       CLEAR     58  35  42 W13       29.97S
$$

COZ042>045-048>051-090-091-030800-
...NORTHEAST COLORADO...

CITY           SKY/WX    TMP DP  RH WIND       PRES   REMARKS
GREELEY ARPT   CLEAR     59  54  82 N6        29.89S
AKRON          NOT AVBL
BURLINGTON     CLEAR     67  57  70 S14       29.82F
WRAY           PTCLDY    65  58  77 W3        29.80F
STERLING       CLEAR     63  59  88 NE9       29.83S
HOLYOKE        NOT AVBL
FORT MORGAN    CLEAR     63  55  76 N8        29.86F
$$

COZ086-089-092>099-030800-
...SOUTHEAST COLORADO...

CITY           SKY/WX    TMP DP  RH WIND       PRES   REMARKS
PUEBLO         CLEAR     61  50  67 W6        29.87R
LA JUNTA       CLEAR     70  42  36 W16       29.80F
LAMAR          CLEAR     70  55  59 SW15      29.75F
SPRINGFIELD      N/A     66  57  72 S22G28    29.86F
$$



USA.gov is the U.S. government's official web portal to all federal, state and local government web resources and services.